カタログに戻る

ELISA W23

運用中軍事SSO
NORAD 38009·PAYLOAD·🇫🇷 France

打ち上げ Dec 17, 2011 から Guiana Space Centre

Loading…

次のパス (今後24時間)

TLE

最新Source: Space-Track

元期: Sep 14, 2026, 22:15 UTC

1 38009U 11076C   26257.92752440  .00000628  00000-0  11589-3 0  9993
2 38009  97.8498 234.3976 0001206  37.5483 322.5807 14.68640452788505

AllMySatでELISA W23をリアルタイム追跡

Download on the App Store